sat.trackr.live / text

‹ back to catalog

STARLINK-34479

NORAD 64365 · 2025-126X

PAYLOAD ACTIVE UNKNOWN

§ Identity

Operator
Country
US
Launch date
2025-06-13
Launch site
AFWTR
Launch vehicle
Mass (kg)
RCS (m²)

Purposes: comms

External: N2YO · Heavens-Above · Gunter

§ Orbital elements

Epoch: 2026-09-20T16:47:33.119232Z

Period
94.14 min
Inclination
70.0005°
Eccentricity
0.0003247
Mean motion
15.29586277 rev/d
Perigee alt
474.8 km
Apogee alt
479.3 km
Semi-major
6,855.2 km
B*
5.5141e-4
RAAN
260.3250°
Arg perigee
269.6916°
Mean anomaly
90.3887°
Rev number
6,995

§ Raw data

STARLINK-344791 64365U 25126X   26263.69968888  .00015760  00000+0  55141-3 0  99982 64365  70.0005 260.3250 0003247 269.6916  90.3887 15.29586277 69957

JSON: /api/v1/satellites/64365 · /tle

For live sub-satellite position, see the globe view (requires WebGL).

§ Visibility from observer

Set your observer location to see the next 7 days of passes ≥ 10°. The values pass through the URL so the page stays shareable.

No JS? Fill the form by hand. The geolocation button needs JavaScript.